This is the latest recevied weather packets stored in our database for station/object KA8DUX-2. If no packets are shown the sender has not sent any weather packets the latest 10 day(s).
| Time | Temp. | Humidity | Pressure | Rain* | Wind** | Luminosity | Snow |
|---|---|---|---|---|---|---|---|
| 1778164767 | 10.56° C | 47% | 1012.8 hPa | 0 mm | - | 672 W/m² | - |
| 1778164464 | 10.56° C | 46% | 1012.9 hPa | 0 mm | - | 156 W/m² | - |
| 1778164161 | 10.56° C | 49% | 1012.9 hPa | 0 mm | - | 265 W/m² | - |
| 1778163856 | 10.56° C | 49% | 1013 hPa | 0 mm | - | 321 W/m² | - |
| 1778163554 | 10° C | 49% | 1013.2 hPa | 0 mm | - | 618 W/m² | - |
| 1778163250 | 10° C | 50% | 1013 hPa | 0 mm | - | 617 W/m² | - |
| 1778162947 | 10° C | 50% | 1013.1 hPa | 0 mm | - | 568 W/m² | - |
| 1778162643 | 9.44° C | 53% | 1013.3 hPa | 0 mm | - | 499 W/m² | - |
| 1778162341 | 9.44° C | 51% | 1013.3 hPa | 0 mm | - | 457 W/m² | - |
| 1778162038 | 9.44° C | 52% | 1012.9 hPa | 0 mm | - | 377 W/m² | - |
| 1778161735 | 9.44° C | 52% | 1013.1 hPa | 0 mm | - | 388 W/m² | - |
| 1778161431 | 9.44° C | 53% | 1012.8 hPa | 0 mm | - | 390 W/m² | - |
| 1778161127 | 9.44° C | 54% | 1013 hPa | 0 mm | - | 140 W/m² | - |
| 1778160823 | 8.89° C | 56% | 1013.1 hPa | 0 mm | - | 353 W/m² | - |
| 1778160522 | 8.33° C | 60% | 1012.8 hPa | 0 mm | - | 326 W/m² | - |
| 1778160218 | 7.78° C | 60% | 1013 hPa | 0 mm | - | 303 W/m² | - |
| 1778159915 | 8.33° C | 59% | 1012.8 hPa | 0 mm | - | 265 W/m² | - |
| 1778159611 | 7.78° C | 61% | 1012.9 hPa | 0 mm | - | 195 W/m² | - |
| 1778159309 | 7.78° C | 63% | 1012.9 hPa | 0 mm | - | 128 W/m² | - |
| 1778159006 | 7.22° C | 64% | 1012.7 hPa | 0 mm | - | 55 W/m² | - |
| 1778158705 | 7.22° C | 64% | 1013 hPa | 0 mm | - | 132 W/m² | - |
| 1778158402 | 6.67° C | 67% | 1012.7 hPa | 0 mm | - | 177 W/m² | - |
| 1778158099 | 6.67° C | 67% | 1012.7 hPa | 0 mm | - | 99 W/m² | - |
| 1778157795 | 6.11° C | 67% | 1012.8 hPa | 0 mm | - | 81 W/m² | - |
| 1778157494 | 6.11° C | 69% | 1012.7 hPa | 0 mm | - | 52 W/m² | - |
* Rain latest hour (hover to see other rain measurements)
** Current wind speed in m/s (hover to see current wind gust speed)